Location: Cardiff
(53.7833°N, 113.6000°W)
Time: 18:33:03
(UTC+00:00)

NOAA 15 - Pass Details

Date: 04 December 2023
Orbit: 796 x 810 km, 98.6° (Epoch: 21 February)

Event Time Altitude Azimuth Distance (km) Brightness Sun altitude
Rises 03:04:50 0° 190° (S) 3,319 7.8 -32.5°
Reaches altitude 10° 03:07:22 10° 200° (SSW) 2,391 7.2 -32.8°
Maximum altitude 03:12:09 34° 265° (W) 1,306 6.1 -33.5°
Drops below altitude 10° 03:16:59 10° 330° (NNW) 2,401 7.4 -34.3°
Sets 03:19:32 0° 340° (NNW) 3,334 8.2 -34.6°
